Location: Cheyres
(46.8153°N, 6.7877°E)
Time: 01:21:10
(UTC+00:00)

Tiros 1 - Pass Details

Date: 26 May 2022
Orbit: 629 x 663 km, 48.4° (Epoch: 05 July)

Event Time Altitude Azimuth Distance (km) Brightness Sun altitude
Exits shadow 02:33:43 - 266° (W) 2,373 9.6 -10.4°
Reaches altitude 10° 02:34:38 10° 267° (W) 2,016 9.3 -10.3°
Maximum altitude 02:39:17 75° 354° (N) 664 7.3 -9.8°
Drops below altitude 10° 02:43:59 10° 80° (E) 2,038 10.6 -9.2°
Sets 02:46:20 0° 82° (E) 2,955 11.5 -8.9°
